| time (UTC) | temp F | wind direction | speed MPH | gust MPH | rain 1hr in | rain 24hr in | rain mn in | humidity % | barometer mb |
| 20260506083640 | 57 | 240 | 3.0 | 10.0 | 0.00 | 0.00 | 0.00 | 50 | 1009.6 |
| 20260506083134 | 57 | 164 | 2.0 | 10.0 | 0.00 | 0.00 | 0.00 | 46 | 1009.5 |
| 20260506082630 | 57 | 55 | 2.0 | 7.0 | 0.00 | 0.00 | 0.00 | 44 | 1009.5 |
| 20260506082132 | 57 | 112 | 2.0 | 9.0 | 0.00 | 0.00 | 0.00 | 43 | 1009.6 |
| 20260506081846 | 57 | 275 | 3.0 | 9.0 | 0.00 | 0.00 | 0.00 | 43 | 1009.6 |
| 20260506081131 | 57 | 25 | 2.0 | 8.0 | 0.00 | 0.00 | 0.00 | 42 | 1009.5 |
| 20260506080900 | 56 | 101 | 2.0 | 8.0 | 0.00 | 0.00 | 0.00 | 41 | 1009.6 |
| 20260506080143 | 56 | 348 | 2.0 | 7.0 | 0.00 | 0.00 | 0.00 | 38 | 1009.5 |
| 20260506073125 | 55 | 110 | 2.0 | 6.0 | 0.00 | 0.00 | 0.00 | 22 | 1009.4 |
| 20260506072625 | 55 | 46 | 2.0 | 15.0 | 0.00 | 0.00 | 0.00 | 20 | 1009.4 |
| 20260506072122 | 55 | 233 | 2.0 | 15.0 | 0.00 | 0.00 | 0.00 | 21 | 1009.4 |
| 20260506071623 | 55 | 108 | 2.0 | 9.0 | 0.00 | 0.00 | 0.00 | 13 | 1009.3 |
| 20260506071122 | 55 | 32 | 2.0 | 9.0 | 0.00 | 0.00 | 0.00 | 10 | 1009.5 |
| 20260506070622 | 54 | 50 | 2.0 | 10.0 | 0.00 | 0.00 | 0.00 | 1 | 1009.5 |
| 20260506070124 | 54 | 142 | 2.0 | 10.0 | 0.00 | 0.00 | 0.00 | 1 | 1009.4 |
| 20260506062114 | 52 | 256 | 2.0 | 9.0 | 0.00 | 0.00 | 0.00 | 1 | 1009.1 |
| 20260506061617 | 52 | 344 | 1.0 | 9.0 | 0.00 | 0.00 | 0.00 | 1 | 1009.1 |
| 20260506061115 | 52 | 30 | 1.0 | 4.0 | 0.00 | 0.00 | 0.00 | 1 | 1009.1 |
| 20260506060616 | 52 | 70 | 1.0 | 4.0 | 0.00 | 0.00 | 0.00 | 1 | 1009.1 |
| 20260506060355 | 52 | 195 | 1.0 | 6.0 | 0.00 | 0.00 | 0.00 | 1 | 1009.0 |
| 20260506051110 | 51 | 43 | 1.0 | 5.0 | 0.00 | 0.00 | 0.00 | 1 | 1009.0 |
| 20260506050611 | 51 | 49 | 1.0 | 5.0 | 0.00 | 0.00 | 0.00 | 1 | 1009.1 |
| 20260506050124 | 51 | 6 | 1.0 | 5.0 | 0.00 | 0.00 | 0.00 | 1 | 1009.1 |
| 20260506045108 | 51 | 227 | 1.0 | 7.0 | 0.00 | 0.00 | 0.00 | 1 | 1009.2 |
| 20260506044609 | 51 | 128 | 0.0 | 4.0 | 0.00 | 0.00 | 0.00 | 1 | 1009.2 |
| 20260506044108 | 51 | 248 | 1.0 | 5.0 | 0.00 | 0.00 | 0.00 | 1 | 1009.2 |
| 20260506043611 | 51 | 123 | 1.0 | 5.0 | 0.00 | 0.00 | 0.00 | 1 | 1009.2 |
| 20260506043111 | 51 | 229 | 1.0 | 5.0 | 0.00 | 0.00 | 0.00 | 1 | 1009.2 |
| 20260506042609 | 51 | 92 | 1.0 | 7.0 | 0.00 | 0.00 | 0.00 | 1 | 1009.2 |
| 20260506042111 | 51 | 108 | 1.0 | 7.0 | 0.00 | 0.00 | 0.00 | 1 | 1009.2 |
| 20260506041609 | 51 | 89 | 1.0 | 4.0 | 0.00 | 0.00 | 0.00 | 1 | 1009.2 |
| 20260506041112 | 51 | 44 | 1.0 | 5.0 | 0.00 | 0.00 | 0.00 | 1 | 1009.2 |
| 20260506040611 | 51 | 349 | 1.0 | 6.0 | 0.00 | 0.00 | 0.00 | 1 | 1009.2 |
| 20260506040113 | 51 | 156 | 1.0 | 8.0 | 0.00 | 0.00 | 0.00 | 1 | 1009.2 |
| 20260506035620 | 51 | 59 | 1.0 | 8.0 | 0.00 | 0.00 | 0.00 | 1 | 1009.3 |
| 20260506035108 | 51 | 79 | 0.0 | 6.0 | 0.00 | 0.00 | 0.00 | 1 | 1009.3 |
| 20260506034613 | 51 | 347 | 1.0 | 9.0 | 0.00 | 0.00 | 0.00 | 1 | 1009.3 |
| 20260506034112 | 51 | 113 | 2.0 | 9.0 | 0.00 | 0.00 | 0.00 | 1 | 1009.3 |
| 20260506033829 | 51 | 162 | 1.0 | 8.0 | 0.00 | 0.00 | 0.00 | 1 | 1009.3 |
| 20260506033326 | 51 | 23 | 1.0 | 6.0 | 0.00 | 0.00 | 0.00 | 1 | 1009.3 |
| 20260506032609 | 51 | 203 | 1.0 | 4.0 | 0.00 | 0.00 | 0.00 | 1 | 1009.4 |
| 20260506032107 | 51 | 131 | 1.0 | 4.0 | 0.00 | 0.00 | 0.00 | 1 | 1009.4 |
| 20260506031610 | 51 | 328 | 1.0 | 7.0 | 0.00 | 0.00 | 0.00 | 1 | 1009.4 |
| 20260506031110 | 51 | 51 | 1.0 | 7.0 | 0.00 | 0.00 | 0.00 | 1 | 1009.4 |
| 20260506030611 | 51 | 6 | 1.0 | 6.0 | 0.00 | 0.00 | 0.00 | 1 | 1009.4 |
| 20260506030117 | 51 | 49 | 1.0 | 6.0 | 0.00 | 0.00 | 0.00 | 1 | 1009.5 |
| 20260506025605 | 51 | 72 | 1.0 | 4.0 | 0.00 | 0.00 | 0.00 | 1 | 1009.5 |
| 20260506025105 | 51 | 23 | 1.0 | 4.0 | 0.00 | 0.00 | 0.00 | 1 | 1009.6 |
| 20260506024602 | 51 | 6 | 1.0 | 3.0 | 0.00 | 0.00 | 0.00 | 1 | 1009.6 |
| 20260506024327 | 51 | 76 | 1.0 | 3.0 | 0.00 | 0.00 | 0.00 | 1 | 1009.5 |
| 20260506023607 | 51 | 51 | 1.0 | 4.0 | 0.00 | 0.00 | 0.00 | 1 | 1009.6 |
| 20260506023328 | 51 | 232 | 1.0 | 4.0 | 0.00 | 0.00 | 0.00 | 1 | 1009.6 |
| 20260506022601 | 51 | 44 | 1.0 | 3.0 | 0.00 | 0.00 | 0.00 | 1 | 1009.6 |
| 20260506022058 | 51 | 297 | 0.0 | 3.0 | 0.00 | 0.00 | 0.00 | 1 | 1009.6 |
| 20260506021557 | 51 | 111 | 0.0 | 4.0 | 0.00 | 0.00 | 0.00 | 1 | 1009.5 |
| 20260506021326 | 51 | 108 | 1.0 | 6.0 | 0.00 | 0.00 | 0.00 | 1 | 1009.6 |
| 20260506020547 | 51 | 226 | 1.0 | 6.0 | 0.00 | 0.00 | 0.00 | 1 | 1009.6 |
| 20260506020051 | 51 | 22 | 1.0 | 4.0 | 0.00 | 0.00 | 0.00 | 1 | 1009.7 |
| 20260506015534 | 51 | 2 | 1.0 | 4.0 | 0.00 | 0.00 | 0.00 | 1 | 1009.7 |
| 20260506015027 | 51 | 53 | 1.0 | 4.0 | 0.00 | 0.00 | 0.00 | 1 | 1009.7 |
| 20260506014521 | 51 | 214 | 1.0 | 4.0 | 0.00 | 0.00 | 0.00 | 1 | 1009.8 |
| 20260506014018 | 51 | 63 | 1.0 | 5.0 | 0.00 | 0.00 | 0.00 | 1 | 1009.8 |
| 20260506013511 | 51 | 95 | 0.0 | 2.0 | 0.00 | 0.00 | 0.00 | 1 | 1009.8 |
| 20260506013228 | 51 | 146 | 0.0 | 6.0 | 0.00 | 0.00 | 0.00 | 1 | 1009.8 |
| 20260506012457 | 51 | 115 | 0.0 | 6.0 | 0.00 | 0.00 | 0.00 | 1 | 1009.8 |
| 20260506011957 | 51 | 53 | 0.0 | 3.0 | 0.00 | 0.00 | 0.00 | 1 | 1009.8 |
| 20260506011459 | 50 | 134 | 0.0 | 3.0 | 0.00 | 0.00 | 0.00 | 1 | 1009.8 |
| 20260506010959 | 50 | 195 | 0.0 | 3.0 | 0.00 | 0.00 | 0.00 | 1 | 1009.9 |
| 20260506010458 | 50 | 59 | 0.0 | 1.0 | 0.00 | 0.00 | 0.00 | 1 | 1009.9 |
| 20260506010001 | 50 | 122 | 0.0 | 4.0 | 0.00 | 0.00 | 0.00 | 1 | 1009.9 |
| 20260506005457 | 50 | 47 | 0.0 | 4.0 | 0.00 | 0.00 | 0.00 | 1 | 1010.0 |
| 20260506004956 | 50 | 240 | 0.0 | 1.0 | 0.00 | 0.00 | 0.00 | 1 | 1010.0 |
| 20260506003957 | 50 | 55 | 0.0 | 4.0 | 0.00 | 0.00 | 0.00 | 1 | 1010.2 |
| 20260506003453 | 50 | 41 | 0.0 | 4.0 | 0.00 | 0.00 | 0.00 | 1 | 1010.2 |
| 20260506002955 | 50 | 63 | 0.0 | 1.0 | 0.00 | 0.00 | 0.00 | 1 | 1010.3 |
| 20260506002451 | 50 | 115 | 0.0 | 2.0 | 0.00 | 0.00 | 0.00 | 1 | 1010.4 |
| 20260506001950 | 50 | 276 | 0.0 | 2.0 | 0.00 | 0.00 | 0.00 | 1 | 1010.4 |
| 20260506001449 | 50 | 7 | 0.0 | 2.0 | 0.00 | 0.00 | 0.00 | 1 | 1010.5 |
| 20260506001213 | 50 | 54 | 0.0 | 4.0 | 0.00 | 0.00 | 0.00 | 1 | 1010.5 |
| 20260506000719 | 50 | 215 | 0.0 | 4.0 | 0.00 | 0.00 | 0.00 | 1 | 1010.5 |
| 20260505235950 | 50 | 96 | 0.0 | 3.0 | 0.00 | 0.00 | 0.00 | 1 | 1010.5 |
| 20260505235450 | 50 | 243 | 0.0 | 3.0 | 0.00 | 0.00 | 0.00 | 1 | 1010.6 |
| 20260505234944 | 50 | 250 | 0.0 | 3.0 | 0.00 | 0.00 | 0.00 | 1 | 1010.6 |
| 20260505234438 | 50 | 98 | 1.0 | 5.0 | 0.00 | 0.00 | 0.00 | 1 | 1010.6 |
| 20260505234155 | 50 | 120 | 0.0 | 5.0 | 0.00 | 0.00 | 0.00 | 1 | 1010.6 |
| 20260505233427 | 50 | 316 | 0.0 | 2.0 | 0.00 | 0.00 | 0.00 | 1 | 1010.7 |
| 20260505233145 | 50 | 118 | 1.0 | 4.0 | 0.00 | 0.00 | 0.00 | 1 | 1010.8 |
| 20260505232415 | 50 | 5 | 1.0 | 5.0 | 0.00 | 0.00 | 0.00 | 1 | 1010.9 |
| 20260505231909 | 50 | 245 | 1.0 | 8.0 | 0.00 | 0.00 | 0.00 | 1 | 1010.9 |
| 20260505231628 | 50 | 275 | 2.0 | 9.0 | 0.00 | 0.00 | 0.00 | 1 | 1010.9 |
| 20260505230855 | 51 | 32 | 1.0 | 9.0 | 0.00 | 0.00 | 0.00 | 1 | 1010.9 |
| 20260505230351 | 51 | 270 | 1.0 | 4.0 | 0.00 | 0.00 | 0.00 | 1 | 1010.9 |
| 20260505225846 | 51 | 64 | 1.0 | 10.0 | 0.00 | 0.00 | 0.00 | 1 | 1010.9 |
| 20260505225339 | 51 | 330 | 1.0 | 10.0 | 0.00 | 0.00 | 0.00 | 5 | 1010.9 |
| 20260505224835 | 51 | 122 | 1.0 | 5.0 | 0.00 | 0.00 | 0.00 | 6 | 1010.9 |
| 20260505224327 | 51 | 349 | 1.0 | 5.0 | 0.00 | 0.00 | 0.00 | 11 | 1010.9 |
| 20260505223821 | 51 | 51 | 0.0 | 4.0 | 0.00 | 0.00 | 0.00 | 12 | 1011.0 |
| 20260505223316 | 51 | 117 | 0.0 | 4.0 | 0.00 | 0.00 | 0.00 | 16 | 1011.0 |
| 20260505222808 | 51 | 257 | 1.0 | 8.0 | 0.00 | 0.00 | 0.00 | 16 | 1011.0 |
| 20260505222305 | 51 | 120 | 1.0 | 8.0 | 0.00 | 0.00 | 0.00 | 16 | 1011.0 |
| 20260505222252 | 51 | 30 | 1.0 | 6.0 | 0.00 | 0.00 | 0.00 | 14 | 1011.1 |
| 20260505221250 | 51 | 66 | 1.0 | 6.0 | 0.00 | 0.00 | 0.00 | 14 | 1011.0 |
| 20260505220743 | 51 | 159 | 1.0 | 5.0 | 0.00 | 0.00 | 0.00 | 17 | 1011.1 |
| 20260505220239 | 51 | 60 | 1.0 | 6.0 | 0.00 | 0.00 | 0.00 | 19 | 1011.1 |
| 20260505215731 | 51 | 252 | 1.0 | 6.0 | 0.00 | 0.00 | 0.00 | 21 | 1011.1 |
| 20260505215227 | 51 | 39 | 1.0 | 5.0 | 0.00 | 0.00 | 0.00 | 22 | 1011.2 |
| 20260505214720 | 51 | 49 | 1.0 | 5.0 | 0.00 | 0.00 | 0.00 | 24 | 1011.2 |
| 20260505214214 | 51 | 75 | 1.0 | 8.0 | 0.00 | 0.00 | 0.00 | 24 | 1011.3 |
| 20260505213708 | 51 | 48 | 2.0 | 8.0 | 0.00 | 0.00 | 0.00 | 28 | 1011.3 |
| 20260505213201 | 51 | 60 | 1.0 | 6.0 | 0.00 | 0.00 | 0.00 | 30 | 1011.4 |
| 20260505212656 | 51 | 205 | 1.0 | 6.0 | 0.00 | 0.00 | 0.00 | 33 | 1011.4 |
| 20260505212151 | 51 | 99 | 1.0 | 5.0 | 0.00 | 0.00 | 0.00 | 36 | 1011.4 |
| 20260505211644 | 51 | 4 | 1.0 | 5.0 | 0.00 | 0.00 | 0.00 | 37 | 1011.3 |
| 20260505211141 | 51 | 168 | 1.0 | 4.0 | 0.00 | 0.00 | 0.00 | 40 | 1011.4 |
| 20260505210632 | 52 | 82 | 1.0 | 6.0 | 0.00 | 0.00 | 0.00 | 40 | 1011.4 |
| 20260505210128 | 52 | 326 | 2.0 | 6.0 | 0.00 | 0.00 | 0.00 | 40 | 1011.4 |
| 20260505205626 | 52 | 107 | 2.0 | 6.0 | 0.00 | 0.00 | 0.00 | 42 | 1011.5 |
| 20260505205115 | 52 | 122 | 2.0 | 6.0 | 0.00 | 0.00 | 0.00 | 42 | 1011.5 |
| 20260505204609 | 52 | 32 | 3.0 | 6.0 | 0.00 | 0.00 | 0.00 | 45 | 1011.5 |
| 20260505204102 | 52 | 26 | 3.0 | 7.0 | 0.00 | 0.00 | 0.00 | 46 | 1011.5 |
| 20260505203555 | 52 | 33 | 3.0 | 8.0 | 0.00 | 0.00 | 0.00 | 44 | 1011.5 |
| 20260505203049 | 52 | 82 | 2.0 | 8.0 | 0.00 | 0.00 | 0.00 | 44 | 1011.4 |
| 20260505202546 | 53 | 30 | 1.0 | 6.0 | 0.00 | 0.00 | 0.00 | 43 | 1011.4 |
| 20260505202039 | 53 | 143 | 1.0 | 6.0 | 0.00 | 0.00 | 0.00 | 44 | 1011.4 |
| 20260505201537 | 53 | 58 | 2.0 | 7.0 | 0.00 | 0.00 | 0.00 | 48 | 1011.3 |
| 20260505201255 | 53 | 51 | 2.0 | 7.0 | 0.00 | 0.00 | 0.00 | 50 | 1011.3 |
| 20260505200520 | 53 | 36 | 2.0 | 8.0 | 0.00 | 0.00 | 0.00 | 50 | 1011.3 |
| 20260505200237 | 53 | 248 | 2.0 | 8.0 | 0.00 | 0.00 | 0.00 | 48 | 1011.3 |
| 20260505195510 | 53 | 57 | 1.0 | 8.0 | 0.00 | 0.00 | 0.00 | 46 | 1011.2 |
| 20260505195221 | 53 | 236 | 1.0 | 4.0 | 0.00 | 0.00 | 0.00 | 41 | 1011.2 |
| 20260505194456 | 52 | 345 | 1.0 | 4.0 | 0.00 | 0.00 | 0.00 | 40 | 1011.1 |
| 20260505193950 | 52 | 195 | 1.0 | 5.0 | 0.00 | 0.00 | 0.00 | 36 | 1011.1 |
| 20260505193703 | 52 | 79 | 0.0 | 5.0 | 0.00 | 0.00 | 0.00 | 37 | 1011.1 |
| 20260505192937 | 52 | 267 | 0.0 | 2.0 | 0.00 | 0.00 | 0.00 | 36 | 1011.0 |
| 20260505192432 | 52 | 105 | 0.0 | 2.0 | 0.00 | 0.00 | 0.00 | 39 | 1011.1 |
| 20260505192150 | 53 | 58 | 0.0 | 4.0 | 0.00 | 0.00 | 0.00 | 40 | 1011.0 |
| 20260505191423 | 53 | 149 | 0.0 | 4.0 | 0.00 | 0.00 | 0.00 | 44 | 1011.0 |
| 20260505190914 | 53 | 285 | 1.0 | 6.0 | 0.00 | 0.00 | 0.00 | 42 | 1010.9 |
| 20260505190408 | 53 | 327 | 1.0 | 6.0 | 0.00 | 0.00 | 0.00 | 45 | 1010.9 |
| 20260505185903 | 53 | 21 | 0.0 | 4.0 | 0.00 | 0.00 | 0.00 | 40 | 1010.8 |
| 20260505185357 | 53 | 120 | 0.0 | 3.0 | 0.00 | 0.00 | 0.00 | 42 | 1010.9 |
| 20260505184857 | 53 | 149 | 1.0 | 4.0 | 0.00 | 0.00 | 0.00 | 43 | 1010.8 |
| 20260505184358 | 53 | 250 | 1.0 | 7.0 | 0.00 | 0.00 | 0.00 | 45 | 1010.8 |
| 20260505183858 | 53 | 205 | 1.0 | 7.0 | 0.00 | 0.00 | 0.00 | 46 | 1010.8 |
| 20260505183621 | 54 | 60 | 1.0 | 7.0 | 0.00 | 0.00 | 0.00 | 46 | 1010.8 |
| 20260505182900 | 54 | 136 | 1.0 | 7.0 | 0.00 | 0.00 | 0.00 | 47 | 1010.9 |
| 20260505182400 | 54 | 28 | 1.0 | 5.0 | 0.00 | 0.00 | 0.00 | 47 | 1010.8 |
| 20260505181859 | 54 | 34 | 2.0 | 7.0 | 0.00 | 0.00 | 0.00 | 48 | 1010.9 |
| 20260505181358 | 54 | 15 | 2.0 | 7.0 | 0.00 | 0.00 | 0.00 | 49 | 1010.9 |
| 20260505180859 | 54 | 77 | 1.0 | 7.0 | 0.00 | 0.00 | 0.00 | 49 | 1010.9 |
| 20260505180357 | 55 | 8 | 1.0 | 5.0 | 0.00 | 0.00 | 0.00 | 48 | 1010.9 |
| 20260505180125 | 55 | 63 | 1.0 | 7.0 | 0.00 | 0.00 | 0.00 | 50 | 1010.9 |
| 20260505175358 | 55 | 245 | 2.0 | 7.0 | 0.00 | 0.00 | 0.00 | 49 | 1010.9 |
| 20260505174857 | 55 | 39 | 2.0 | 8.0 | 0.00 | 0.00 | 0.00 | 52 | 1010.9 |
| 20260505174353 | 55 | 174 | 1.0 | 8.0 | 0.00 | 0.00 | 0.00 | 52 | 1010.9 |
| 20260505173855 | 55 | 100 | 2.0 | 9.0 | 0.00 | 0.00 | 0.00 | 52 | 1010.9 |
| 20260505173356 | 55 | 340 | 1.0 | 9.0 | 0.00 | 0.00 | 0.00 | 54 | 1010.9 |
| 20260505172855 | 56 | 131 | 1.0 | 7.0 | 0.00 | 0.00 | 0.00 | 53 | 1010.9 |
| 20260505172351 | 56 | 190 | 2.0 | 7.0 | 0.00 | 0.00 | 0.00 | 54 | 1010.9 |
| 20260505171850 | 56 | 310 | 2.0 | 9.0 | 0.00 | 0.00 | 0.00 | 55 | 1010.9 |
| 20260505171350 | 56 | 197 | 2.0 | 9.0 | 0.00 | 0.00 | 0.00 | 56 | 1010.9 |
| 20260505170853 | 57 | 217 | 2.0 | 8.0 | 0.00 | 0.00 | 0.00 | 56 | 1010.9 |
| 20260505170352 | 57 | 179 | 1.0 | 8.0 | 0.00 | 0.00 | 0.00 | 58 | 1010.8 |
| 20260505170337 | 57 | 61 | 1.0 | 8.0 | 0.00 | 0.00 | 0.00 | 58 | 1010.8 |
| 20260505165348 | 57 | 243 | 2.0 | 8.0 | 0.00 | 0.00 | 0.00 | 59 | 1010.8 |
| 20260505165120 | 58 | 21 | 2.0 | 9.0 | 0.00 | 0.00 | 0.00 | 59 | 1010.8 |
| 20260505164347 | 58 | 75 | 2.0 | 11.0 | 0.00 | 0.00 | 0.00 | 59 | 1010.9 |
| 20260505163845 | 58 | 307 | 2.0 | 11.0 | 0.00 | 0.00 | 0.00 | 59 | 1010.9 |
| 20260505163345 | 58 | 35 | 2.0 | 8.0 | 0.00 | 0.00 | 0.00 | 59 | 1010.9 |
| 20260505162848 | 58 | 63 | 3.0 | 9.0 | 0.00 | 0.00 | 0.00 | 59 | 1010.9 |
| 20260505162840 | 59 | 45 | 2.0 | 11.0 | 0.00 | 0.00 | 0.00 | 59 | 1010.9 |
| 20260505161841 | 59 | 27 | 2.0 | 11.0 | 0.00 | 0.00 | 0.00 | 59 | 1010.9 |
| 20260505161601 | 59 | 45 | 2.0 | 9.0 | 0.00 | 0.00 | 0.00 | 59 | 1010.9 |
| 20260505161104 | 59 | 168 | 2.0 | 9.0 | 0.00 | 0.00 | 0.00 | 59 | 1010.9 |
| 20260505160341 | 59 | 321 | 2.0 | 6.0 | 0.00 | 0.00 | 0.00 | 60 | 1010.8 |
| 20260505152837 | 59 | 359 | 2.0 | 6.0 | 0.00 | 0.00 | 0.00 | 59 | 1010.9 |
| 20260505152601 | 59 | 204 | 2.0 | 6.0 | 0.00 | 0.00 | 0.00 | 59 | 1010.9 |
| 20260505151837 | 59 | 258 | 2.0 | 8.0 | 0.00 | 0.00 | 0.00 | 59 | 1011.0 |
| 20260505151603 | 59 | 16 | 2.0 | 8.0 | 0.00 | 0.00 | 0.00 | 59 | 1010.9 |
| 20260505150852 | 59 | 295 | 2.0 | 8.0 | 0.00 | 0.00 | 0.00 | 59 | 1010.9 |
| 20260505150339 | 59 | 330 | 2.0 | 6.0 | 0.00 | 0.00 | 0.00 | 60 | 1010.9 |
| 20260505140334 | 60 | 43 | 3.0 | 9.0 | 0.00 | 0.00 | 0.00 | 59 | 1011.3 |
| 20260505124819 | 59 | 20 | 4.0 | 12.0 | 0.00 | 0.00 | 0.00 | 59 | 1011.6 |
| 20260505124542 | 59 | 198 | 3.0 | 11.0 | 0.00 | 0.00 | 0.00 | 59 | 1011.6 |
| 20260505123814 | 59 | 110 | 4.0 | 11.0 | 0.00 | 0.00 | 0.00 | 60 | 1011.7 |
| 20260505123316 | 59 | 60 | 4.0 | 14.0 | 0.00 | 0.00 | 0.00 | 59 | 1011.7 |
| 20260505123050 | 59 | 58 | 3.0 | 14.0 | 0.00 | 0.00 | 0.00 | 59 | 1011.8 |
| 20260505122317 | 59 | 256 | 2.0 | 6.0 | 0.00 | 0.00 | 0.00 | 59 | 1011.9 |
| 20260505122037 | 59 | 148 | 2.0 | 9.0 | 0.00 | 0.00 | 0.00 | 60 | 1011.8 |
| 20260505121315 | 59 | 257 | 3.0 | 9.0 | 0.00 | 0.00 | 0.00 | 59 | 1011.9 |
| 20260505120815 | 59 | 93 | 3.0 | 10.0 | 0.00 | 0.00 | 0.00 | 60 | 1011.7 |
| 20260505120316 | 59 | 328 | 3.0 | 10.0 | 0.00 | 0.00 | 0.00 | 59 | 1011.7 |
| 20260505120039 | 59 | 92 | 2.0 | 7.0 | 0.00 | 0.00 | 0.00 | 59 | 1011.8 |
| 20260505115314 | 59 | 353 | 3.0 | 9.0 | 0.00 | 0.00 | 0.00 | 59 | 1011.8 |
| 20260505115030 | 59 | 117 | 3.0 | 9.0 | 0.00 | 0.00 | 0.00 | 60 | 1011.8 |
| 20260505114314 | 59 | 255 | 2.0 | 9.0 | 0.00 | 0.00 | 0.00 | 59 | 1011.8 |
| 20260505114308 | 59 | 70 | 2.0 | 7.0 | 0.00 | 0.00 | 0.00 | 60 | 1011.8 |
| 20260505113315 | 59 | 130 | 3.0 | 8.0 | 0.00 | 0.00 | 0.00 | 60 | 1011.8 |
| 20260505112814 | 58 | 129 | 3.0 | 9.0 | 0.00 | 0.00 | 0.00 | 60 | 1012.0 |
| 20260505112314 | 58 | 92 | 3.0 | 10.0 | 0.00 | 0.00 | 0.00 | 60 | 1012.0 |
| 20260505111812 | 58 | 94 | 3.0 | 10.0 | 0.00 | 0.00 | 0.00 | 60 | 1012.1 |
| 20260505111302 | 58 | 138 | 2.0 | 7.0 | 0.00 | 0.00 | 0.00 | 60 | 1012.1 |
| 20260505110756 | 58 | 22 | 2.0 | 10.0 | 0.00 | 0.00 | 0.00 | 60 | 1012.2 |
| 20260505110536 | 58 | 138 | 3.0 | 10.0 | 0.00 | 0.00 | 0.00 | 59 | 1012.1 |
| 20260505102202 | 57 | 84 | 4.0 | 12.0 | 0.00 | 0.00 | 0.00 | 59 | 1012.4 |
| 20260505101658 | 58 | 117 | 3.0 | 12.0 | 0.00 | 0.00 | 0.00 | 59 | 1012.5 |
| 20260505101152 | 58 | 51 | 2.0 | 10.0 | 0.00 | 0.00 | 0.00 | 59 | 1012.5 |
| 20260505100645 | 57 | 77 | 2.0 | 10.0 | 0.00 | 0.00 | 0.00 | 59 | 1012.5 |
| 20260505100143 | 57 | 264 | 2.0 | 11.0 | 0.00 | 0.00 | 0.00 | 58 | 1012.5 |
| 20260505095634 | 57 | 26 | 3.0 | 11.0 | 0.00 | 0.00 | 0.00 | 58 | 1012.5 |
| 20260505095351 | 56 | 103 | 2.0 | 9.0 | 0.00 | 0.00 | 0.00 | 58 | 1012.4 |
| 20260505094621 | 56 | 28 | 3.0 | 12.0 | 0.00 | 0.00 | 0.00 | 58 | 1012.6 |
| 20260505094402 | 56 | 113 | 3.0 | 12.0 | 0.00 | 0.00 | 0.00 | 58 | 1012.5 |
| 20260505093832 | 57 | 110 | 3.0 | 9.0 | 0.00 | 0.00 | 0.00 | 56 | 1012.4 |
| 20260505093104 | 56 | 116 | 3.0 | 9.0 | 0.00 | 0.00 | 0.00 | 54 | 1012.5 |
| 20260505092558 | 56 | 134 | 3.0 | 8.0 | 0.00 | 0.00 | 0.00 | 55 | 1012.4 |
| 20260505092051 | 56 | 130 | 3.0 | 8.0 | 0.00 | 0.00 | 0.00 | 56 | 1012.5 |
| 20260505091544 | 56 | 44 | 2.0 | 9.0 | 0.00 | 0.00 | 0.00 | 56 | 1012.5 |
| 20260505091038 | 56 | 346 | 2.0 | 10.0 | 0.00 | 0.00 | 0.00 | 57 | 1012.3 |
| 20260505091026 | 57 | 30 | 3.0 | 10.0 | 0.00 | 0.00 | 0.00 | 57 | 1012.3 |
| 20260505090312 | 56 | 12 | 3.0 | 10.0 | 0.00 | 0.00 | 0.00 | 56 | 1012.2 |
| 20260505085537 | 56 | 113 | 3.0 | 11.0 | 0.00 | 0.00 | 0.00 | 58 | 1012.3 |
| 20260505085035 | 56 | 65 | 3.0 | 12.0 | 0.00 | 0.00 | 0.00 | 57 | 1012.3 |
| 20260505084533 | 56 | 276 | 3.0 | 12.0 | 0.00 | 0.00 | 0.00 | 57 | 1012.3 |